Location: Laupheim
(48.2265°N, 9.8829°E)
Time: 13:31:42
(UTC+01:00)

ISS - Pass Details

Date: 13 January 2018
Orbit: 402 x 407 km, 51.6° (Epoch: 22 January)

Event Time Altitude Azimuth Distance (km) Brightness Sun altitude
Exits shadow 07:06:27 12° 262° (W) 1,371 -1.7 -9.9°
Maximum altitude 07:08:26 18° 221° (SW) 1,074 -1.9 -9.6°
Drops below altitude 10° 07:10:45 10° 176° (S) 1,461 -0.7 -9.3°
Sets 07:13:15 0° 157° (SSE) 2,317 0.8 -8.9°
